Location: Newark
(11.2914°S, 14.4718°E)
Time: 22:29:28
(UTC+00:00)

Tiros 1 despin weight - Pass Details

Date: 20 September 2019
Orbit: 593 x 643 km, 48.2° (Epoch: 21 October)

Event Time Altitude Azimuth Distance (km) Brightness Sun altitude
Rises 20:58:04 0° 312° (NW) 2,823 - -59.1°
Reaches altitude 10° 21:00:21 10° 308° (NW) 1,931 - -59.6°
Maximum altitude 21:04:42 56° 229° (SW) 720 - -60.6°
Drops below altitude 10° 21:09:09 10° 150° (SSE) 1,972 - -61.6°
Sets 21:11:31 0° 146° (SE) 2,889 - -62.2°
